STARLINK-1665, 46356

Orbit data source: Space-Track

STARLINK-1665, 46356 is a payload satellite owned by SpaceX/Seattle (US) in LEO that was launched on Thu, 03 Sep 2020 UTC via an FALCON 9 launch vehicle from the Air Force Eastern Test Range (AFETR). Payload-class satellites include a variety of spacecraft equipped with specific instruments for various scientific and technological missions. These include communications satellites like Starlink; space stations such as the ISS; scientific satellites like the Hubble; Earth observation satellites from companies like Planet Labs, Umbra, and HawkEye 360; GPS; miniature CubeSats for education and research; and military/defense satellites.

Loading next visibility...
Identifier
46356, 2020-062AH
Orbit
LEO
Last TLE update
13 hours ago
Origin
Manufacturer
SpaceX/Seattle
Mission
Operational Commercial Communications
Bus & Motor
STARLINK, Unknown motor
Mass
260 kg wet, ~248 kg dry
Launch date (UTC)
2020-09-03 (5 years ago)
Launch vehicle
FALCON 9
Launch site
Air Force Eastern Test Range (AFETR)
Object type
Payload
Rocket body
Debris
Shape & HBR
Box + 1 Pan, 8.86 m
Radar Cross Section
13.562 m², Large (>1 m²)

Expand to show TLE details & history

TLE from 13 hours ago
0 STARLINK-1665
1 46356U 20062AH  25189.82939217 -.00000392  00000-0 -74220-5 0  9996
2 46356  53.0566  31.3879 0001416  94.5854 265.5297 15.06401898267552
Epoch: 2025-07-08T19:54Z
TLE epoch observation values (Epoch: 2025-07-08T19:54:19.483Z)
Latitude
-0°
Longitude
165.78796°
Altitude
548.162 km
Speed
7.589 km/s
True Right ascension
02h 05m 33s
True Declination
0° 00' 00"
Sunlit
Object was in daylight at epoch
Visualization orbit readout
Latitude
33.00402°
Longitude
-167.56859°
Altitude
548.821 km
Speed
7.592 km/s
Apparent Right ascension
06h 10m 22s
Apparent Declination
-2° 09' 45"
Sunlit
Object is in daylight
Visualization observer readout
Local Sidereal Time
20:59:41
Azimuth
56.517° ENE
Elevation
-36.216°
Doppler factor
1
Orbital elements
Apogee altitude
548.457 km
Perigee altitude
546.495 km
Semi-major axis
6,925.613 km
Eccentricity
0.00014
Inclination
53.0566°
RAAN
31.3879°
Arg. of periapsis
94.5854°
True anomaly
Unknown
Mean anomaly
265.5297°
Eccentric anomaly
Unknown
Mean motion
3.76579 °/min
Orbital period
95.6 mins
BSTAR
-0.000007422
Loading maneuver chart data...
Loading SW <> Apogee altitude chart data...
Loading historical data...
Loading historical data...
Loading historical data...
Loading historical data...
Loading historical data...
Loading historical data...
Loading historical data...

STARLINK-1665 Visibility forecast

Observer location: undefined°, undefined°

Span
Click to sort rows by Start time (UTC) header in descending order
Start Az.
Max El. time (UTC)
Max El. Az.
Max El.
End time (UTC)
End Az.
6 mins2025-07-09 15:09:58.351Z179.458° S2025-07-09 15:12:58.351Z122.106° SE22.938°2025-07-09 15:15:58.351Z74.349° E
5 mins2025-07-09 16:49:58.351Z265.503° W2025-07-09 16:51:58.351Z325.175° NNW35.83°2025-07-09 16:54:58.351Z35.663° NE
5 mins2025-07-09 21:51:58.351Z344.101° N2025-07-09 21:53:58.351Z33.924° NE27.37°2025-07-09 21:56:58.351Z89.036° E
6 mins2025-07-09 23:30:58.351Z288.666° WNW2025-07-09 23:32:58.351Z245.3° WSW33.601°2025-07-09 23:36:58.351Z155.892° SSE
|